Deer Park, WA

2:04 AM PDT on September 24, 2017 (GMT -0700)
Deer Park

Weather History for KDEW - October, 2012

Change the Weather History Date:

Saturday, October 13, 2012

  Actual Average Record
Temperature  
Mean Temperature 55 °F 45 °F  
Max Temperature 60 °F 59 °F 70 °F (2015)
Min Temperature 50 °F 31 °F 18 °F (2002)
Degree Days  
Heating Degree Days 10 20  
Month to date heating degree days 231 229  
Since 1 July heating degree days 541 648  
Cooling Degree Days 0 0  
Month to date cooling degree days 0 0  
Year to date cooling degree days 232 187  
Growing Degree Days 4 (Base 50)    
Moisture  
Dew Point 48 °F    
Average Humidity 80    
Maximum Humidity 93    
Minimum Humidity 67    
Precipitation  
Precipitation T in 0.05 in 1.30 in (2016)
Month to date precipitation T 0.54  
Year to date precipitation 17.76 14.98  
Sea Level Pressure  
Sea Level Pressure 30.08 in    
Wind  
Wind Speed 9 mph (South)    
Max Wind Speed 16 mph    
Max Gust Speed 20 mph    
Visibility 10 miles    
Events Rain    
T = Trace of Precipitation, MM = Missing Value Source: NWS Daily Summary

Daily Weather History Graph

Daily Weather History Graph

Search for Another Location

Airport or City:

Trip Planner

Search our weather history database for the weather conditions in past years. The results will help you decide how hot, cold, wet, or windy it might be!

Date:

Astronomy

Oct. 13, 2012 Rise Set
Actual Time 7:06 AM PDT 6:03 PM PDT
Civil Twilight 6:35 AM PDT 6:35 PM PDT
Nautical Twilight 5:59 AM PDT 7:10 PM PDT
Astronomical Twilight 5:23 AM PDT 7:46 PM PDT
Moon 4:55 AM PDT (10/13) 4:54 PM PDT (10/13)
Length of Visible Light 11h 59m
Length of Day
10h 56m
Waning Crescent, 4% of the Moon is Illuminated
Oct 13
Waning Crescent
Oct 15
New
Oct 21
First Quarter
Oct 29
Full
Nov 6
Last Quarter

Hourly Weather History & Observations

Time (PDT) Temp. Dew Point Humidity Pressure Visibility Wind Dir Wind Speed Gust Speed Precip Events Conditions
12:09 AM 51.8 °F 46.4 °F 82% 29.94 in 10.0 mi South 6.9 mph - N/A   Mostly Cloudy
12:53 AM 51.1 °F 46.0 °F 83% 29.94 in 10.0 mi South 5.8 mph - N/A   Overcast
1:30 AM 51.8 °F 48.2 °F 88% 29.96 in 10.0 mi South 5.8 mph - 0.00 in   Overcast
1:43 AM 51.8 °F 48.2 °F 88% 29.96 in 10.0 mi South 6.9 mph - 0.00 in   Overcast
1:53 AM 51.1 °F 48.0 °F 89% 29.96 in 10.0 mi South 5.8 mph - 0.00 in Rain Light Rain
2:53 AM 50.0 °F 48.0 °F 93% 29.96 in 10.0 mi South 4.6 mph - 0.00 in   Overcast
3:53 AM 50.0 °F 48.9 °F 96% 29.98 in 10.0 mi South 5.8 mph - N/A   Overcast
4:53 AM 51.1 °F 48.9 °F 92% 30.01 in 10.0 mi South 6.9 mph - N/A   Overcast
5:53 AM 51.1 °F 48.9 °F 92% 30.02 in 10.0 mi SSW 6.9 mph - N/A   Overcast
6:53 AM 51.1 °F 48.9 °F 92% 30.04 in 10.0 mi SSW 8.1 mph - N/A   Overcast
7:53 AM 52.0 °F 48.9 °F 89% 30.06 in 10.0 mi South 10.4 mph - N/A   Overcast
8:53 AM 52.0 °F 48.0 °F 86% 30.09 in 10.0 mi South 11.5 mph - N/A   Overcast
9:53 AM 52.0 °F 48.0 °F 86% 30.11 in 10.0 mi SSW 9.2 mph - N/A   Overcast
11:45 AM 53.6 °F 48.2 °F 82% 30.13 in 10.0 mi South 9.2 mph - N/A   Overcast
11:53 AM 53.1 °F 48.0 °F 83% 30.14 in 10.0 mi South 10.4 mph - N/A   Overcast
12:53 PM 55.9 °F 48.0 °F 75% 30.14 in 10.0 mi South 10.4 mph - N/A   Overcast
1:53 PM 55.9 °F 48.0 °F 75% 30.14 in 10.0 mi SSE 9.2 mph - N/A   Overcast
2:09 PM 57.2 °F 48.2 °F 72% 30.13 in 10.0 mi SSE 8.1 mph - N/A   Overcast
2:53 PM 59.0 °F 48.9 °F 69% 30.11 in 10.0 mi South 11.5 mph - N/A   Scattered Clouds
3:53 PM 57.9 °F 48.0 °F 70% 30.17 in 10.0 mi SW 10.4 mph - N/A   Overcast
4:01 PM 57.2 °F 48.2 °F 72% 30.16 in 10.0 mi SSW 12.7 mph - N/A   Overcast
5:53 PM 57.9 °F 48.0 °F 70% 30.14 in 10.0 mi SSW 12.7 mph - N/A   Overcast
6:26 PM 57.2 °F 48.2 °F 72% 30.14 in 10.0 mi SSW 8.1 mph - N/A   Overcast
7:36 PM 55.4 °F 48.2 °F 77% 30.15 in 10.0 mi South 9.2 mph - N/A   Mostly Cloudy
7:53 PM 55.0 °F 48.0 °F 77% 30.15 in 10.0 mi South 9.2 mph - N/A   Overcast
9:53 PM 54.0 °F 48.0 °F 80% 30.18 in 10.0 mi SE 8.1 mph - N/A   Overcast
10:53 PM 54.0 °F 48.9 °F 83% 30.18 in 10.0 mi SSE 5.8 mph - N/A   Overcast
11:53 PM 53.1 °F 48.9 °F 86% 30.17 in 10.0 mi South 5.8 mph - N/A   Overcast